パンスターズ彗星

P/2024 R2 ( PanSTARRS )

English version
Home page
Updated on October 18, 2024

---------------------------------------------------------------------

・ プロフィール

発見日 2024年9月3日
発見光度 20.7等
発見者 Pan-STARRS 2 telescope (Haleakala)

・ 写真集

・ 軌道要素

Epoch 2024 Oct. 17.0 TT = JDT 2460600.5
T 2024 Oct. 1.69432 TT                                  Rudenko
q   2.3022966            (2000.0)            P               Q
n   0.17727447     Peri.  203.90034     +0.80248139     -0.59377462
a   3.1383780      Node   193.03413     +0.58080335     +0.79990527
e   0.2664056      Incl.   15.10788     +0.13671535     +0.08708184
P   5.56
From 38 observations 2024 Aug. 9-Sept. 7, mean residual 0".5.

・ 光度変化

        m1 = 15.2 + 5 logΔ + 10.0 log r

---------------------------------------------------------------------

軌道要素はM.P.E.C. 2024-T138に掲載されたものです。
光度グラフはComet for Windowsで作成したものです。

---------------------------------------------------------------------

Copyright(C) Seiichi Yoshida (comet@aerith.net). All rights reserved.